Project,Study,Ord_Occ,Event_Num,Cast_ID,Date_Time_UTC,Date_Time_PST,Lat_Dec,Lon_Dec,Sta_ID,Line,Sta,Depth,Pressure,PrQ,Temp1,Temp1Q,Temp2,Temp2Q,TempAve,Salt1,Salt1Q,Salt1_Corr,Salt2,Salt2Q,Salt2_Corr,SaltAve_Corr,Ox1,Ox1Q,Ox1_CruiseCorr,Ox1_StaCorr,Ox2,Ox2Q,Ox2_CruiseCorr,Ox2_StaCorr,OxAve_StaCorr,Ox1uM,Ox1uM_CruiseCorr,Ox1uM_StaCorr,Ox2uM,Ox2uM_CruiseCorr,Ox2uM_StaCorr,OxAveuM_StaCorr,FluorV,FluorQ,EstChl_CruiseCorr,EstChl_StaCorr,ISUSV,ISUSQ,EstNO3_CruiseCorr,EstNO3_StaCorr,SigThetaTS1,SigThetaTS1Q,SigThetaTS2,SigThetaTS2Q,BAT,XMiss,TransQ,pH,pHQ,SPAR,SPARQ,PAR,PARQ,PoT1,PoT2,DynHt,SVA,OxSat1,OxSat2,BTL_Depth,BTL_Temp,SaltB,OxB,OxBuM,Chl-a,Phaeo,NO3,NO2,NH4,PO4,SIL
CalCOFI,2101RL,001,,2101_001d,16-Jan-2021 05:00:10,15-Jan-2021 21:00:10,32.95402,-117.30634,0 0.0,0,0.0,3.000,3.021,,14.8492,,14.7843,,14.8168,33.5740,,33.5798,33.5628,,33.5648,33.5723,5.8467,,6.1191,6.0841,5.7370,,6.0913,6.0340,6.0591,254.767,266.9503,265.3692,249.987,283.7573,263.1880,264.2786,0.1622,,1.0809,1.0306, ,, , ,24.9054,,24.9108,,0.9805,78.2597,,,,1.8474E+00,,1.0000E-12,,14.8488,14.7839,-0.0012,303.870,101.505,99.465,3,,33.6155,6.052,263.94,0.911,0.258,,,,,
CalCOFI,2101RL,001,,2101_001d,16-Jan-2021 05:00:31,15-Jan-2021 21:00:31,32.95402,-117.30634,00.0 00.0,00.0,00.0,4.000,4.028,,14.8650,,14.8703,,14.8677,33.5730,,33.5788,33.5635,,33.5655,33.5722,5.8397,,6.1117,6.0772,5.7797,,6.1366,6.0777,6.0775,254.464,266.6331,265.0704,251.851,283.4204,265.0938,265.0821,0.1420,,0.9154,0.8716, ,, , ,24.9013,,24.8928,,0.9546,78.7698,,,,1.8474E+00,,1.0000E-12,,14.8644,14.8698,0.0072,304.290,101.416,100.378,,,,,,,,,,,,
CalCOFI,2101RL,001,,2101_001d,16-Jan-2021 05:00:33,15-Jan-2021 21:00:33,32.95400,-117.30634,000.0 000.0,000.0,000.0,5.000,5.036,,14.8375,,14.8375,,14.8375,33.5725,,33.5783,33.5635,,33.5655,33.5719,5.8522,,6.1248,6.0895,5.7995,,6.1576,6.0979,6.0937,255.007,267.2015,265.6058,252.715,284.0242,265.9772,265.7915,0.1475,,0.9604,0.9149, ,, , ,24.9069,,24.8999,,0.9578,78.7066,,,,1.8474E+00,,1.0000E-12,,14.8368,14.8368,0.0105,303.789,101.577,100.657,,,,,,,,,,,,
CalCOFI,2101RL,001,,2101_001d,16-Jan-2021 05:00:35,15-Jan-2021 21:00:35,32.95400,-117.30634,000.0 000.0,000.0,000.0,6.000,6.043,,14.7852,,14.7825,,14.7839,33.5716,,33.5774,33.5626,,33.5646,33.5710,5.7933,,6.0632,6.0314,5.7858,,6.1431,6.0839,6.0577,252.438,264.5123,263.0729,252.114,281.1674,265.3627,264.2178,0.1699,,1.1440,1.0912, ,, , ,24.9175,,24.9111,,0.9707,78.4532,,,,1.8474E+00,,1.0000E-12,,14.7843,14.7816,0.0135,302.811,100.449,100.308,,,,,,,,,,,,
CalCOFI,2101RL,001,,2101_001d,16-Jan-2021 05:00:36,15-Jan-2021 21:00:36,32.95400,-117.30634,000.0 000.0,000.0,000.0,7.000,7.050,,14.6821,,14.6775,,14.6798,33.5699,,33.5757,33.5611,,33.5631,33.5694,5.7120,,5.9781,5.9513,5.7054,,6.0577,6.0017,5.9765,248.892,260.8003,259.5767,248.605,277.2242,261.7749,260.6758,0.1952,,1.3513,1.2904, ,, , ,24.9383,,24.9325,,0.9910,78.0566,,,,1.8474E+00,,1.0000E-12,,14.6810,14.6765,0.0166,300.855,98.834,98.705,,,,,,,,,,,,
CalCOFI,2101RL,001,,2101_001d,16-Jan-2021 05:00:38,15-Jan-2021 21:00:38,32.95398,-117.30634,000.0 000.0,000.0,000.0,8.000,8.057,,14.5794,,14.5833,,14.5814,33.5671,,33.5729,33.5579,,33.5599,33.5664,5.6839,,5.9487,5.9236,5.6860,,6.0371,5.9819,5.9528,247.663,259.5138,258.3650,247.756,275.8575,260.9069,259.6360,0.2544,,1.8364,1.7564, ,, , ,24.9582,,24.9503,,1.0198,77.4954,,,,1.8474E+00,,1.0000E-12,,14.5782,14.5821,0.0196,298.993,98.144,98.182,,,,,,,,,,,,
CalCOFI,2101RL,001,,2101_001d,16-Jan-2021 05:00:40,15-Jan-2021 21:00:40,32.95398,-117.30634,000.0 000.0,000.0,000.0,9.000,9.064,,14.5276,,14.5256,,14.5266,33.5655,,33.5713,33.5564,,33.5584,33.5649,5.6886,,5.9536,5.9282,5.6796,,6.0303,5.9754,5.9518,247.864,259.7242,258.5631,247.475,276.0811,260.6196,259.5914,0.2991,,2.2027,2.1083, ,, , ,24.9679,,24.9614,,1.0521,76.8731,,,,1.8474E+00,,1.0000E-12,,14.5263,14.5243,0.0226,298.093,98.122,97.957,,,,,,,,,,,,
CalCOFI,2101RL,001,,2101_001d,16-Jan-2021 05:00:42,15-Jan-2021 21:00:42,32.95398,-117.30634,000.0 000.0,000.0,000.0,10.000,10.071,,14.4828,,14.4856,,14.4842,33.5660,,33.5718,33.5568,,33.5588,33.5653,5.6382,,5.9008,5.8786,5.6344,,5.9823,5.9292,5.9039,245.665,257.4223,256.3950,245.501,273.6357,258.6013,257.4982,0.3409,,2.5452,2.4373, ,, , ,24.9779,,24.9702,,1.0758,76.4178,,,,1.8474E+00,,1.0000E-12,,14.4813,14.4841,0.0256,297.171,97.165,97.099,,,,,,,,,,,,
CalCOFI,2101RL,001,,2101_001d,16-Jan-2021 05:00:45,15-Jan-2021 21:00:45,32.95398,-117.30634,000.0 000.0,000.0,000.0,11.000,11.078,,14.4446,,14.4474,,14.4460,33.5651,,33.5709,33.5562,,33.5582,33.5646,5.6020,,5.8630,5.8429,5.5660,,5.9096,5.8593,5.8511,244.085,255.7684,254.8372,242.521,271.8787,255.5544,255.1958,0.3683,,2.7697,2.6530, ,, , ,24.9854,,24.9779,,1.0897,76.1535,,,,1.8474E+00,,1.0000E-12,,14.4430,14.4458,0.0286,296.493,96.466,95.847,11,,33.5743,5.867,255.91,2.700,0.793,,,,,
CalCOFI,2101RL,001,,2101_001d,16-Jan-2021 05:00:46,15-Jan-2021 21:00:46,32.95398,-117.30634,000.0 000.0,000.0,000.0,12.000,12.085,,14.4283,,14.4275,,14.4279,33.5653,,33.5711,33.5560,,33.5580,33.5646,5.5869,,5.8471,5.8280,5.5401,,5.8821,5.8328,5.8304,243.428,255.0806,254.1894,241.392,271.1482,254.4000,254.2947,0.3603,,2.7041,2.5900, ,, , ,24.9890,,24.9820,,1.0911,76.1272,,,,1.8474E+00,,1.0000E-12,,14.4265,14.4257,0.0316,296.175,96.175,95.363,,,,,,,,,,,,
CalCOFI,2101RL,001,,2101_001d,16-Jan-2021 05:00:48,15-Jan-2021 21:00:48,32.95398,-117.30634,000.0 000.0,000.0,000.0,13.000,13.093,,14.4089,,14.4085,,14.4087,33.5659,,33.5717,33.5565,,33.5585,33.5651,5.5770,,5.8368,5.8182,5.5369,,5.8787,5.8295,5.8239,242.995,254.6274,253.7625,241.249,270.6667,254.2538,254.0082,0.3575,,2.6812,2.5680, ,, , ,24.9936,,24.9864,,1.0856,76.2317,,,,1.8474E+00,,1.0000E-12,,14.4070,14.4066,0.0345,295.769,95.967,95.270,,,,,,,,,,,,
CalCOFI,2101RL,001,,2101_001d,16-Jan-2021 05:00:50,15-Jan-2021 21:00:50,32.95398,-117.30635,000.0 000.0,000.0,000.0,14.000,14.100,,14.3996,,14.3999,,14.3998,33.5664,,33.5722,33.5568,,33.5588,33.5655,5.4908,,5.7466,5.7333,5.4684,,5.8060,5.7595,5.7464,239.240,250.6966,250.0602,238.263,266.4910,251.2008,250.6305,0.3609,,2.7091,2.5948, ,, , ,24.9959,,24.9885,,1.0817,76.3051,,,,1.8474E+00,,1.0000E-12,,14.3976,14.3979,0.0375,295.572,94.467,94.075,,,,,,,,,,,,
CalCOFI,2101RL,001,,2101_001d,16-Jan-2021 05:00:52,15-Jan-2021 21:00:52,32.95398,-117.30636,000.0 000.0,000.0,000.0,15.000,15.107,,14.3745,,14.3711,,14.3728,33.5653,,33.5711,33.5564,,33.5584,33.5648,5.4316,,5.6846,5.6749,5.4200,,5.7546,5.7100,5.6925,236.661,247.9969,247.5174,236.154,263.6231,249.0444,248.2809,0.3501,,2.6206,2.5097, ,, , ,25.0005,,24.9944,,1.0753,76.4273,,,,1.8474E+00,,1.0000E-12,,14.3723,14.3689,0.0405,295.169,93.401,93.189,,,,,,,,,,,,
CalCOFI,2101RL,001,,2101_001d,16-Jan-2021 05:00:53,15-Jan-2021 21:00:53,32.95398,-117.30636,000.0 000.0,000.0,000.0,16.000,16.114,,14.3237,,14.3222,,14.3230,33.5644,,33.5702,33.5554,,33.5574,33.5638,5.4302,,5.6831,5.6736,5.4190,,5.7535,5.7090,5.6913,236.594,247.9268,247.4514,236.107,263.5486,248.9964,248.2239,0.3239,,2.4059,2.3035, ,, , ,25.0105,,25.0039,,1.0543,76.8307,,,,1.8474E+00,,1.0000E-12,,14.3213,14.3199,0.0435,294.243,93.279,93.079,,,,,,,,,,,,
CalCOFI,2101RL,001,,2101_001d,16-Jan-2021 05:00:56,15-Jan-2021 21:00:56,32.95398,-117.30636,000.0 000.0,000.0,000.0,17.000,17.121,,14.2621,,14.2733,,14.2677,33.5651,,33.5709,33.5556,,33.5576,33.5643,5.1842,,5.4257,5.4311,5.2482,,5.5721,5.5344,5.4828,225.875,236.7062,236.8829,228.665,251.6289,241.3873,239.1351,0.3002,,2.2117,2.1169, ,, , ,25.0241,,25.0144,,1.0454,77.0007,,,,1.8474E+00,,1.0000E-12,,14.2596,14.2708,0.0464,292.978,88.945,90.058,,,,,,,,,,,,
CalCOFI,2101RL,001,,2101_001d,16-Jan-2021 05:00:58,15-Jan-2021 21:00:58,32.95398,-117.30636,000.0 000.0,000.0,000.0,18.000,18.129,,14.1663,,14.1613,,14.1638,33.5603,,33.5661,33.5530,,33.5550,33.5606,4.8064,,5.0303,5.0588,4.8949,,5.1969,5.1733,5.1161,209.412,219.4727,220.6511,213.266,233.3218,225.6426,223.1469,0.3078,,2.2739,2.1768, ,, , ,25.0405,,25.0359,,1.0139,77.6113,,,,1.8474E+00,,1.0000E-12,,14.1638,14.1588,0.0494,291.445,82.301,83.804,,,,,,,,,,,,
CalCOFI,2101RL,001,,2101_001d,16-Jan-2021 05:01:00,15-Jan-2021 21:01:00,32.95398,-117.30636,000.0 000.0,000.0,000.0,19.000,19.136,,13.8897,,13.8804,,13.8851,33.5495,,33.5553,33.5403,,33.5423,33.5488,4.7709,,4.9931,5.0238,4.8121,,5.1089,5.0887,5.0563,207.852,217.8397,219.1130,209.649,231.5871,221.9444,220.5287,0.2406,,1.7233,1.6477, ,, , ,25.0897,,25.0845,,0.9431,78.9970,,,,1.8474E+00,,1.0000E-12,,13.8870,13.8777,0.0523,286.785,81.230,81.912,,,,,,,,,,,,
CalCOFI,2101RL,001,,2101_001d,16-Jan-2021 05:01:01,15-Jan-2021 21:01:01,32.95398,-117.30638,000.0 000.0,000.0,000.0,20.000,20.143,,13.7001,,13.7084,,13.7043,33.5440,,33.5498,33.5350,,33.5370,33.5434,4.7093,,4.9287,4.9631,4.7258,,5.0173,5.0005,4.9818,205.162,215.0238,216.4608,205.884,228.5958,218.0949,217.2779,0.1929,,1.3324,1.2723, ,, , ,25.1245,,25.1158,,0.8895,80.0628,,,,1.8474E+00,,1.0000E-12,,13.6973,13.7056,0.0551,283.496,79.870,80.159,,,,,,,,,,,,
CalCOFI,2101RL,001,,2101_001d,16-Jan-2021 05:01:03,15-Jan-2021 21:01:03,32.95397,-117.30638,000.0 000.0,000.0,000.0,21.000,21.150,,13.6037,,13.5992,,13.6015,33.5421,,33.5479,33.5334,,33.5354,33.5417,4.5074,,4.7173,4.7641,4.5590,,4.8401,4.8300,4.7971,196.365,205.8151,207.7873,198.612,218.8134,210.6597,209.2235,0.1676,,1.1251,1.0731, ,, , ,25.1428,,25.1369,,0.8602,80.6496,,,,1.8474E+00,,1.0000E-12,,13.6008,13.5962,0.0580,281.779,76.295,77.157,21,,33.5793,4.784,208.68,1.061,0.636,,,,,
CalCOFI,2101RL,001,,2101_001d,16-Jan-2021 05:01:05,15-Jan-2021 21:01:05,32.95396,-117.30638,000.0 000.0,000.0,000.0,22.000,22.157,,13.4518,,13.4453,,13.4486,33.5390,,33.5448,33.5303,,33.5323,33.5386,4.4494,,4.6566,4.7069,4.4705,,4.7461,4.7396,4.7233,193.833,203.1646,205.2908,194.751,215.9977,206.7120,206.0014,0.1540,,1.0137,0.9660, ,, , ,25.1712,,25.1658,,0.8427,81.0042,,,,1.8474E+00,,1.0000E-12,,13.4488,13.4423,0.0608,279.092,75.079,75.420,,,,,,,,,,,,
CalCOFI,2101RL,001,,2101_001d,16-Jan-2021 05:01:07,15-Jan-2021 21:01:07,32.95396,-117.30639,000.0 000.0,000.0,000.0,23.000,23.165,,13.3203,,13.3172,,13.3188,33.5410,,33.5468,33.5318,,33.5338,33.5403,4.4499,,4.6572,4.7074,4.4508,,4.7252,4.7194,4.7134,193.848,203.1803,205.3056,193.887,216.0144,205.8286,205.5671,0.1342,,0.8514,0.8102, ,, , ,25.1993,,25.1929,,0.8324,81.2128,,,,1.8474E+00,,1.0000E-12,,13.3171,13.3140,0.0636,276.441,74.885,74.891,,,,,,,,,,,,
CalCOFI,2101RL,001,,2101_001d,16-Jan-2021 05:01:10,15-Jan-2021 21:01:10,32.95396,-117.30641,000.0 000.0,000.0,000.0,24.000,24.172,,13.2652,,13.2642,,13.2647,33.5444,,33.5502,33.5354,,33.5374,33.5438,4.3563,,4.5592,4.6152,4.3723,,4.6418,4.6392,4.6272,189.768,198.9093,201.2829,190.468,211.4774,202.3328,201.8079,0.1401,,0.8998,0.8566, ,, , ,25.2131,,25.2064,,0.8281,81.3003,,,,1.8474E+00,,1.0000E-12,,13.2619,13.2609,0.0664,275.156,73.229,73.493,,,,,,,,,,,,
CalCOFI,2101RL,001,,2101_001d,16-Jan-2021 05:01:12,15-Jan-2021 21:01:12,32.95396,-117.30642,000.0 000.0,000.0,000.0,25.000,25.179,,13.2125,,13.2114,,13.2120,33.5478,,33.5536,33.5387,,33.5407,33.5472,4.2120,,4.4082,4.4729,4.2773,,4.5409,4.5421,4.5075,183.478,192.3250,195.0813,186.326,204.4828,198.0978,196.5896,0.1389,,0.8900,0.8472, ,, , ,25.2263,,25.2195,,0.8294,81.2737,,,,1.8474E+00,,1.0000E-12,,13.2091,13.2079,0.0691,273.925,70.727,71.819,,,,,,,,,,,,
CalCOFI,2101RL,001,,2101_001d,16-Jan-2021 05:01:13,15-Jan-2021 21:01:13,32.95396,-117.30642,000.0 000.0,000.0,000.0,26.000,26.186,,13.1946,,13.1932,,13.1939,33.5516,,33.5574,33.5424,,33.5444,33.5509,4.1252,,4.3173,4.3874,4.1779,,4.4353,4.4405,4.4140,179.695,188.3649,191.3514,181.995,200.2761,193.6696,192.5105,0.1305,,0.8211,0.7810, ,, , ,25.2328,,25.2260,,0.8391,81.0764,,,,1.8474E+00,,1.0000E-12,,13.1911,13.1896,0.0719,273.332,69.246,70.126,,,,,,,,,,,,
CalCOFI,2101RL,001,,2101_001d,16-Jan-2021 05:01:15,15-Jan-2021 21:01:15,32.95398,-117.30642,000.0 000.0,000.0,000.0,27.000,27.193,,12.9858,,12.9834,,12.9846,33.5638,,33.5696,33.5555,,33.5575,33.5636,4.1269,,4.3191,4.3891,4.1381,,4.3931,4.3998,4.3945,179.762,188.4351,191.4174,180.250,200.3506,191.8854,191.6514,0.1166,,0.7072,0.6716, ,, , ,25.2839,,25.2779,,0.8376,81.1062,,,,1.8474E+00,,1.0000E-12,,12.9821,12.9798,0.0746,268.493,68.983,69.163,,,,,,,,,,,,
CalCOFI,2101RL,001,,2101_001d,16-Jan-2021 05:01:18,15-Jan-2021 21:01:18,32.95396,-117.30642,000.0 000.0,000.0,000.0,28.000,28.201,,12.9080,,12.9010,,12.9045,33.5850,,33.5908,33.5762,,33.5782,33.5845,3.9941,,4.1801,4.2582,4.0288,,4.2770,4.2881,4.2732,173.973,182.3751,185.7097,175.483,193.9131,187.0114,186.3606,0.1086,,0.6417,0.6086, ,, , ,25.3157,,25.3103,,0.8892,80.0703,,,,1.8474E+00,,1.0000E-12,,12.9043,12.8973,0.0773,265.491,66.665,67.230,,,,,,,,,,,,
CalCOFI,2101RL,001,,2101_001d,16-Jan-2021 05:01:19,15-Jan-2021 21:01:19,32.95396,-117.30642,000.0 000.0,000.0,000.0,29.000,29.208,,12.8806,,12.8804,,12.8805,33.5974,,33.6032,33.5884,,33.5904,33.5968,3.9319,,4.1150,4.1969,3.9515,,4.1949,4.2091,4.2030,171.258,179.5331,183.0329,172.115,190.8940,183.5678,183.3004,0.1181,,0.7195,0.6834, ,, , ,25.3308,,25.3238,,0.9423,79.0121,,,,1.8474E+00,,1.0000E-12,,12.8767,12.8765,0.0800,264.084,65.594,65.918,,,,,,,,,,,,
CalCOFI,2101RL,001,,2101_001d,16-Jan-2021 05:01:21,15-Jan-2021 21:01:21,32.95396,-117.30644,000.0 000.0,000.0,000.0,30.000,30.215,,12.7892,,12.7857,,12.7875,33.5995,,33.6053,33.5912,,33.5932,33.5993,3.9207,,4.1033,4.1858,3.9311,,4.1732,4.1882,4.1870,170.770,179.0222,182.5517,171.222,190.3513,182.6548,182.6033,0.1141,,0.6867,0.6519, ,, , ,25.3504,,25.3447,,0.9059,79.7347,,,,1.8474E+00,,1.0000E-12,,12.7851,12.7817,0.0826,262.240,65.285,65.449,,,,,,,,,,,,
CalCOFI,2101RL,001,,2101_001d,16-Jan-2021 05:01:22,15-Jan-2021 21:01:22,32.95396,-117.30644,000.0 000.0,000.0,000.0,31.000,31.222,,12.7560,,12.7552,,12.7556,33.6070,,33.6128,33.5981,,33.6001,33.6065,3.8819,,4.0627,4.1476,3.8900,,4.1296,4.1462,4.1469,169.077,177.2500,180.8825,169.433,188.4687,180.8256,180.8541,0.1119,,0.6687,0.6346, ,, , ,25.3628,,25.3560,,0.9156,79.5402,,,,1.8474E+00,,1.0000E-12,,12.7519,12.7511,0.0853,261.090,64.597,64.728,,,,,,,,,,,,
CalCOFI,2101RL,001,,2101_001d,16-Jan-2021 05:01:24,15-Jan-2021 21:01:24,32.95394,-117.30644,000.0 000.0,000.0,000.0,32.000,32.230,,12.6978,,12.6961,,12.6970,33.6082,,33.6140,33.5976,,33.5996,33.6068,3.8126,,3.9902,4.0793,3.8157,,4.0507,4.0703,4.0748,166.056,174.0876,177.9039,166.195,185.1093,177.5149,177.7094,0.0996,,0.5679,0.5378, ,, , ,25.3750,,25.3672,,0.9053,79.7466,,,,1.8474E+00,,1.0000E-12,,12.6935,12.6918,0.0879,259.944,63.368,63.414,,,,,,,,,,,,
CalCOFI,2101RL,001,,2101_001d,16-Jan-2021 05:01:27,15-Jan-2021 21:01:27,32.95394,-117.30644,000.0 000.0,000.0,000.0,33.000,33.237,,12.6123,,12.6133,,12.6128,33.6153,,33.6211,33.6060,,33.6080,33.6146,3.7940,,3.9707,4.0610,3.7822,,4.0151,4.0361,4.0486,165.242,173.2355,177.1013,164.731,184.2041,176.0181,176.5597,0.0918,,0.5040,0.4764, ,, , ,25.3972,,25.3898,,0.8729,80.3940,,,,1.8474E+00,,1.0000E-12,,12.6079,12.6089,0.0905,257.854,62.950,62.752,,,,,,,,,,,,
CalCOFI,2101RL,001,,2101_001d,16-Jan-2021 05:01:29,15-Jan-2021 21:01:29,32.95395,-117.30645,000.0 000.0,000.0,000.0,34.000,34.244,,12.6151,,12.6157,,12.6154,33.6174,,33.6232,33.6082,,33.6102,33.6167,3.7822,,3.9584,4.0493,3.7742,,4.0066,4.0279,4.0386,164.730,172.6996,176.5965,164.381,183.6347,175.6602,176.1284,0.1042,,0.6056,0.5740, ,, , ,25.3984,,25.3911,,0.8883,80.0851,,,,1.8474E+00,,1.0000E-12,,12.6106,12.6112,0.0931,257.771,62.759,62.623,,,,,,,,,,,,
CalCOFI,2101RL,001,,2101_001d,16-Jan-2021 05:01:31,15-Jan-2021 21:01:31,32.95396,-117.30646,000.0 000.0,000.0,000.0,35.000,35.251,,12.6090,,12.6092,,12.6091,33.6188,,33.6246,33.6095,,33.6115,33.6181,3.7326,,3.9064,4.0005,3.7326,,3.9624,3.9854,3.9930,162.568,170.4364,174.4649,162.570,181.2306,173.8085,174.1367,0.1048,,0.6105,0.5787, ,, , ,25.4007,,25.3934,,0.8926,79.9996,,,,1.8474E+00,,1.0000E-12,,12.6043,12.6045,0.0957,257.581,61.928,61.925,,,,,,,,,,,,
CalCOFI,2101RL,001,,2101_001d,16-Jan-2021 05:01:33,15-Jan-2021 21:01:33,32.95396,-117.30646,000.0 000.0,000.0,000.0,36.000,36.259,,12.5871,,12.5876,,12.5874,33.6211,,33.6269,33.6120,,33.6140,33.6205,3.6884,,3.8602,3.9569,3.6972,,3.9248,3.9492,3.9531,160.644,168.4223,172.5679,161.026,179.0911,172.2299,172.3989,0.1052,,0.6138,0.5819, ,, , ,25.4067,,25.3996,,0.8876,80.0997,,,,1.8474E+00,,1.0000E-12,,12.5823,12.5828,0.0983,257.029,61.169,61.311,,,,,,,,,,,,
CalCOFI,2101RL,001,,2101_001d,16-Jan-2021 05:01:34,15-Jan-2021 21:01:34,32.95394,-117.30646,000.0 000.0,000.0,000.0,37.000,37.266,,12.5499,,12.5501,,12.5500,33.6287,,33.6345,33.6196,,33.6216,33.6281,3.6910,,3.8629,3.9595,3.6877,,3.9147,3.9395,3.9495,160.756,168.5396,172.6783,160.612,179.2156,171.8066,172.2425,0.0966,,0.5434,0.5142, ,, , ,25.4199,,25.4128,,0.9059,79.7332,,,,1.8474E+00,,1.0000E-12,,12.5450,12.5452,0.1009,255.804,61.168,61.109,,,,,,,,,,,,
CalCOFI,2101RL,001,,2101_001d,16-Jan-2021 05:01:35,15-Jan-2021 21:01:35,32.95394,-117.30646,000.0 000.0,000.0,000.0,38.000,38.273,,12.5296,,12.5304,,12.5300,33.6324,,33.6382,33.6231,,33.6251,33.6317,3.7009,,3.8733,3.9692,3.6858,,3.9127,3.9375,3.9534,161.186,168.9897,173.1023,160.526,179.6938,171.7187,172.4105,0.0940,,0.5220,0.4937, ,, , ,25.4267,,25.4194,,0.9154,79.5445,,,,1.8474E+00,,1.0000E-12,,12.5246,12.5253,0.1034,255.181,61.307,61.054,,,,,,,,,,,,
CalCOFI,2101RL,001,,2101_001d,16-Jan-2021 05:01:39,15-Jan-2021 21:01:39,32.95397,-117.30647,000.0 000.0,000.0,000.0,39.000,39.280,,12.5229,,12.5234,,12.5232,33.6336,,33.6394,33.6243,,33.6263,33.6329,3.6731,,3.8442,3.9418,3.6611,,3.8865,3.9123,3.9271,159.973,167.7199,171.9063,159.452,178.3449,170.6206,171.2635,0.0759,,0.3737,0.3512, ,, , ,25.4289,,25.4216,,0.9156,79.5401,,,,1.9251E+00,,1.0000E-12,,12.5177,12.5182,0.1060,254.996,60.838,60.636,,,,,,,,,,,,
CalCOFI,2101RL,001,,2101_001d,16-Jan-2021 05:01:41,15-Jan-2021 21:01:41,32.95396,-117.30648,000.0 000.0,000.0,000.0,40.000,40.288,,12.5076,,12.5084,,12.5080,33.6358,,33.6416,33.6265,,33.6285,33.6351,3.6688,,3.8397,3.9376,3.6466,,3.8711,3.8975,3.9176,159.785,167.5231,171.7210,158.819,178.1358,169.9733,170.8472,0.0890,,0.4811,0.4543, ,, , ,25.4336,,25.4263,,0.9094,79.6645,,,,1.8478E+00,,1.0000E-12,,12.5024,12.5031,0.1086,254.575,60.748,60.378,,,,,,,,,,,,
CalCOFI,2101RL,001,,2101_001d,16-Jan-2021 05:01:42,15-Jan-2021 21:01:42,32.95396,-117.30649,000.0 000.0,000.0,000.0,41.000,41.295,,12.5124,,12.5126,,12.5125,33.6379,,33.6437,33.6290,,33.6310,33.6374,3.6382,,3.8076,3.9074,3.6262,,3.8494,3.8766,3.8920,158.452,166.1278,170.4067,157.931,176.6535,169.0654,169.7361,0.0890,,0.4811,0.4543, ,, , ,25.4344,,25.4274,,0.9199,79.4559,,,,1.8474E+00,,1.0000E-12,,12.5069,12.5072,0.1111,254.526,60.248,60.047,,,,,,,,,,,,
CalCOFI,2101RL,001,,2101_001d,16-Jan-2021 05:01:44,15-Jan-2021 21:01:44,32.95396,-117.30650,000.0 000.0,000.0,000.0,42.000,42.302,,12.4967,,12.4984,,12.4976,33.6436,,33.6494,33.6344,,33.6364,33.6429,3.5993,,3.7669,3.8691,3.5964,,3.8177,3.8462,3.8577,156.758,164.3545,168.7365,156.633,174.7698,167.7383,168.2374,0.0854,,0.4516,0.4260, ,, , ,25.4418,,25.4344,,0.9248,79.3584,,,,1.8474E+00,,1.0000E-12,,12.4912,12.4929,0.1137,253.845,59.587,59.538,,,,,,,,,,,,
CalCOFI,2101RL,001,,2101_001d,16-Jan-2021 05:01:46,15-Jan-2021 21:01:46,32.95396,-117.30652,000.0 000.0,000.0,000.0,43.000,43.310,,12.4765,,12.4774,,12.4770,33.6474,,33.6532,33.6383,,33.6403,33.6468,3.5492,,3.7145,3.8197,3.5479,,3.7662,3.7966,3.8082,154.573,162.0672,166.5822,154.518,172.3400,165.5758,166.0790,0.0830,,0.4319,0.4071, ,, , ,25.4487,,25.4415,,0.9308,79.2396,,,,1.8474E+00,,1.0000E-12,,12.4708,12.4717,0.1163,253.218,58.734,58.710,,,,,,,,,,,,
CalCOFI,2101RL,001,,2101_001d,16-Jan-2021 05:01:48,15-Jan-2021 21:01:48,32.95396,-117.30654,000.0 000.0,000.0,000.0,44.000,44.317,,12.4319,,12.4337,,12.4328,33.6556,,33.6614,33.6465,,33.6485,33.6550,3.5211,,3.6851,3.7920,3.5160,,3.7323,3.7640,3.7780,153.348,160.7849,165.3744,153.126,170.9778,164.1525,164.7635,0.0757,,0.3721,0.3497, ,, , ,25.4637,,25.4563,,0.9365,79.1260,,,,1.8474E+00,,1.0000E-12,,12.4261,12.4279,0.1188,251.816,58.218,58.133,,,,,,,,,,,,
CalCOFI,2101RL,001,,2101_001d,16-Jan-2021 05:01:51,15-Jan-2021 21:01:51,32.95396,-117.30654,000.0 000.0,000.0,000.0,45.000,45.324,,12.3836,,12.3866,,12.3851,33.6613,,33.6671,33.6529,,33.6549,33.6610,3.4999,,3.6629,3.7711,3.4790,,3.6930,3.7262,3.7487,152.420,159.8135,164.4594,151.511,169.9458,162.5013,163.4804,0.0657,,0.2902,0.2709, ,, , ,25.4774,,25.4704,,0.9280,79.2947,,,,1.8474E+00,,1.0000E-12,,12.3777,12.3807,0.1213,250.530,57.811,57.466,,,,,,,,,,,,
CalCOFI,2101RL,001,,2101_001d,16-Jan-2021 05:01:54,15-Jan-2021 21:01:54,32.95396,-117.30656,000.0 000.0,000.0,000.0,46.000,46.332,,12.3674,,12.3685,,12.3680,33.6615,,33.6673,33.6524,,33.6544,33.6609,3.4540,,3.6149,3.7259,3.4378,,3.6493,3.6840,3.7050,150.421,157.7209,162.4885,149.720,167.7229,160.6701,161.5793,0.0685,,0.3131,0.2930, ,, , ,25.4807,,25.4735,,0.9247,79.3595,,,,1.8474E+00,,1.0000E-12,,12.3613,12.3624,0.1239,250.243,57.033,56.765,,,,,,,,,,,,
CalCOFI,2101RL,001,,2101_001d,16-Jan-2021 05:01:56,15-Jan-2021 21:01:56,32.95396,-117.30656,000.0 000.0,000.0,000.0,47.000,47.339,,12.3291,,12.3293,,12.3292,33.6652,,33.6710,33.6561,,33.6581,33.6646,3.4008,,3.5592,3.6734,3.4036,,3.6130,3.6491,3.6613,148.106,155.2976,160.2060,148.226,165.1486,159.1425,159.6743,0.0713,,0.3360,0.3150, ,, , ,25.4910,,25.4839,,0.9176,79.5011,,,,1.8474E+00,,1.0000E-12,,12.3229,12.3231,0.1264,249.288,56.113,56.155,,,,,,,,,,,,
CalCOFI,2101RL,001,,2101_001d,16-Jan-2021 05:02:00,15-Jan-2021 21:02:00,32.95397,-117.30656,000.0 000.0,000.0,000.0,48.000,48.346,,12.2955,,12.3074,,12.3015,33.6728,,33.6786,33.6621,,33.6641,33.6714,3.3772,,3.5345,3.6502,3.3891,,3.5976,3.6343,3.6423,147.075,154.2183,159.1895,147.593,164.0021,158.4953,158.8424,0.0652,,0.2861,0.2670, ,, , ,25.5034,,25.4928,,0.9193,79.4681,,,,1.8474E+00,,1.0000E-12,,12.2892,12.3011,0.1294,248.139,55.686,55.892,,,,,,,,,,,,
CalCOFI,2101RL,001,,2101_001d,16-Jan-2021 05:02:09,15-Jan-2021 21:02:09,32.95397,-117.30657,000.0 000.0,000.0,000.0,49.000,49.354,,12.1867,,12.1935,,12.1901,33.6894,,33.6952,33.6790,,33.6810,33.6881,3.2698,,3.4221,3.5443,3.2705,,3.4716,3.5131,3.5287,142.392,149.3161,154.5722,142.425,158.7945,153.2113,153.8918,0.0555,,0.2066,0.1906, ,, , ,25.5370,,25.5277,,0.9157,79.5395,,,,1.8474E+00,,1.0000E-12,,12.1804,12.1871,0.1333,244.954,53.799,53.815,,,,,,,,,,,,
CalCOFI,2101RL,001,,2101_001d,16-Jan-2021 05:02:19,15-Jan-2021 21:02:19,32.95397,-117.30659,000.0 000.0,000.0,000.0,50.000,50.361,,12.0833,,12.0918,,12.0876,33.7056,,33.7114,33.6951,,33.6971,33.7043,3.1274,,3.2730,3.4040,3.1322,,3.3247,3.3717,3.3879,136.189,142.8228,148.4563,136.397,151.8967,147.0480,147.7522,0.0486,,0.1500,0.1363, ,, , ,25.5693,,25.5595,,0.9433,78.9915,,,,1.8474E+00,,1.0000E-12,,12.0769,12.0853,0.1371,241.906,51.350,51.434,50,,33.7337,3.392,147.92,0.221,0.318,,,,,
CalCOFI,2101RL,001,,2101_001d,16-Jan-2021 05:02:49,15-Jan-2021 21:02:49,32.95396,-117.30660,000.0 000.0,000.0,000.0,51.000,51.368,,11.9989,,11.9975,,11.9982,33.7162,,33.7220,33.7075,,33.7095,33.7158,3.1240,,3.2695,3.4006,3.0970,,3.2873,3.3357,3.3682,136.037,142.6637,148.3065,134.860,151.7277,145.4765,146.8915,0.0464,,0.1320,0.1190, ,, , ,25.5935,,25.5870,,0.9280,79.2954,,,,1.8474E+00,,1.0000E-12,,11.9924,11.9909,0.1427,239.619,51.207,50.759,,,,,,,,,,,,
